Regional Weather Roundup
Issued by NWS

Home | Current Version | Previous Version | Text Only | Print | Product List | Glossary On
Versions: 1 2 3 4 5 6 7 8 9 10 11 12 13 14 15 16 17 18 19 20 21 22 23 24 25 26 27 28 29 30 31 32 33 34 35 36 37 38 39 40 41 42 43 44 45 46 47 48 49 50
000
ASUS43 KLSX 270310
RWRMO

WEATHER SUMMARY FOR MISSOURI
NATIONAL WEATHER SERVICE SPRINGFIELD MO
1000 PM CDT FRI AUG 26 2016

NOTE: "FAIR" INDICATES FEW OR NO CLOUDS BELOW 12,000 FEET WITH NO
       SIGNIFICANT WEATHER AND/OR OBSTRUCTIONS TO VISIBILITY.
       CURRENT SKY AND/OR WEATHER CONDITIONS ARE NOT AVAILABLE FOR
       CHILLICOTHE AND FARMINGTON.

MOZ001>031-035>038-043-044-053-054-270400-
...NORTHERN AND WESTERN MISSOURI...

CITY           SKY/WX    TMP DP  RH WIND       PRES   REMARKS
KANSAS CTY INT CLOUDY    70  69  97 E5        30.04R
KANSAS C DTWN  TSTM      72  69  90 W5        30.03R
LEE`S SUMMIT   CLOUDY    72  66  81 NW12      30.06R
ST JOSEPH      CLOUDY    69  68  96 NW5       30.04R FOG
CHILLICOTHE      N/A     70  68  93 S13G28    30.03R
KIRKSVILLE     CLOUDY    73  71  93 E6        30.06R

$$
MOZ066>068-077>081-088>096-101>105-270400-
...SOUTHWEST MISSOURI...

CITY           SKY/WX    TMP DP  RH WIND       PRES   REMARKS
SPRINGFIELD    CLOUDY    75  71  87 S7        30.04S
JOPLIN         CLOUDY    74  70  87 SE8       30.03R
BRANSON        CLOUDY    75  72  88 CALM      30.07S

$$
MOZ032>034-039>042-045>050-055>058-069>072-270400-
...CENTRAL MISSOURI...

CITY           SKY/WX    TMP DP  RH WIND       PRES   REMARKS
COLUMBIA       CLOUDY    76  74  93 E5        30.04S
JEFFERSON CITY CLOUDY    76  71  85 CALM      30.03R
ROLLA          CLOUDY    73  70  90 SE8       30.06S
SEDALIA        CLOUDY    75  72  90 N5        30.06R
WHITEMAN AFB   MOCLDY    73  73 100 E2        30.05R
OSAGE BEACH    CLOUDY    74  69  85 S8G17     30.04F

$$
MOZ051-052-059>065-270400-
...EAST CENTRAL MISSOURI...

CITY           SKY/WX    TMP DP  RH WIND       PRES   REMARKS
ST LOUIS INTL  CLOUDY    82  70  66 SE9       30.05S
SPIRIT OF STL  CLOUDY    80  73  79 VRB3      30.04R
ST CHARLES     CLOUDY    75  73  93 E5        30.04S

$$
MOZ072>076-082>087-097>100-106>115-270400-
...SOUTH CENTRAL AND SOUTHEAST MISSOURI...

CITY           SKY/WX    TMP DP  RH WIND       PRES   REMARKS
CAPE GIRARDEAU CLOUDY    75  73  93 CALM      30.06F
FARMINGTON     MOCLDY    77  71  82 S9        30.10R
POPLAR BLUFF   CLOUDY    73  71  93 CALM      30.07R
WEST PLAINS    PTCLDY    77  69  76 SE8       30.11R

$$




USA.gov is the U.S. government's official web portal to all federal, state and local government web resources and services.